When you browse on this site, cookies collect data to enhance your experience and personalize the content and advertising you see.
Visit our Privacy Policy to learn more. By continuing to use the site, you agree to this use of cookies and data.
  • In Sweden
  • List of Countries
  • For 7 days
  • Water Temperature
  • Satellite Maps
  • Weather Map
  • Weather Widgets
  • user-avatar
    Login

    Hourly Weather Sliven

    Today, 19 January, Saturday

    Time Temperature Precipitation Wind Pressure Humidity
    00:00 +4°C° 0 mm 1 mps 731 mmHg 64%
    01:00 +4°C° 0 mm 1 mps 732 mmHg 63%
    02:00 +3°C° 0 mm 2 mps 731 mmHg 59%
    03:00 +3°C° 0 mm 2 mps 732 mmHg 62%
    04:00 +3°C° 0 mm 2 mps 732 mmHg 65%
    05:00 +4°C° 0 mm 1 mps 732 mmHg 67%
    06:00 +4°C° 0 mm 1 mps 733 mmHg 72%
    07:00 +4°C° 0 mm 1 mps 733 mmHg 76%
    08:00 +3°C° 0 mm 1 mps 733 mmHg 80%
    09:00 +5°C° 0 mm 1 mps 734 mmHg 78%
    10:00 +6°C° 0 mm 1 mps 734 mmHg 76%
    11:00 +7°C° 0 mm 1 mps 735 mmHg 74%
    12:00 +7°C° 0 mm 2 mps 735 mmHg 74%
    13:00 +7°C° 0 mm 2 mps 734 mmHg 73%
    14:00 +7°C° 0 mm 2 mps 734 mmHg 73%
    15:00 +6°C° 0 mm 2 mps 734 mmHg 77%
    16:00 +4°C° 0 mm 3 mps 734 mmHg 81%
    17:00 +3°C° 0 mm 3 mps 734 mmHg 85%
    18:00 +3°C° 0.1 mm 3 mps 734 mmHg 88%
    19:00 +3°C° 0.1 mm 3 mps 734 mmHg 90%
    20:00 +2°C° 0.1 mm 3 mps 734 mmHg 93%
    21:00 +2°C° 0.4 mm 3 mps 734 mmHg 93%
    22:00 +2°C° 0.4 mm 3 mps 734 mmHg 94%
    23:00 +2°C° 0.4 mm 3 mps 734 mmHg 94%

    Tomorrow, 20 January, Sunday

    Time Temperature Precipitation Wind Pressure Humidity
    00:00 +2°C° 0.3 mm 3 mps 734 mmHg 95%
    01:00 +3°C° 0.3 mm 2 mps 734 mmHg 95%
    02:00 +3°C° 0.3 mm 2 mps 734 mmHg 96%
    03:00 +4°C° 0.2 mm 2 mps 734 mmHg 96%
    04:00 +4°C° 0.2 mm 2 mps 733 mmHg 97%
    05:00 +4°C° 0.2 mm 2 mps 733 mmHg 97%
    06:00 +4°C° 0.1 mm 2 mps 733 mmHg 97%
    07:00 +4°C° 0.1 mm 2 mps 733 mmHg 97%
    08:00 +4°C° 0.1 mm 2 mps 732 mmHg 98%
    09:00 +5°C° 0.1 mm 2 mps 732 mmHg 97%
    10:00 +5°C° 0.1 mm 2 mps 732 mmHg 97%
    11:00 +6°C° 0.1 mm 1 mps 732 mmHg 96%
    12:00 +7°C° 0.2 mm 1 mps 732 mmHg 96%
    13:00 +7°C° 0.2 mm 1 mps 731 mmHg 96%
    14:00 +7°C° 0.2 mm 1 mps 731 mmHg 96%
    15:00 +7°C° 0.1 mm 1 mps 730 mmHg 96%
    16:00 +7°C° 0.1 mm 1 mps 730 mmHg 97%
    17:00 +7°C° 0.1 mm 1 mps 730 mmHg 97%
    18:00 +7°C° 0.1 mm 1 mps 730 mmHg 97%
    19:00 +6°C° 0.1 mm 0 mps 730 mmHg 97%
    20:00 +5°C° 0.1 mm 0 mps 730 mmHg 97%
    21:00 +5°C° 0 mm 0 mps 730 mmHg 96%
    22:00 +6°C° 0 mm 1 mps 730 mmHg 96%
    23:00 +6°C° 0 mm 1 mps 731 mmHg 96%

    Day after tomorrow, 21 January, Monday

    Time Temperature Precipitation Wind Pressure Humidity
    00:00 +6°C° 0 mm 1 mps 731 mmHg 95%
    01:00 +4°C° 0 mm 2 mps 731 mmHg 95%
    02:00 +4°C° 0 mm 2 mps 731 mmHg 94%
    03:00 +4°C° 0 mm 2 mps 731 mmHg 93%
    04:00 +3°C° 0 mm 2 mps 731 mmHg 93%
    05:00 +3°C° 0 mm 2 mps 731 mmHg 92%
    06:00 +2°C° 0 mm 2 mps 731 mmHg 91%
    07:00 +2°C° 0 mm 2 mps 732 mmHg 91%
    08:00 +2°C° 0 mm 2 mps 732 mmHg 91%
    09:00 +3°C° 0 mm 2 mps 733 mmHg 85%
    10:00 +6°C° 0 mm 1 mps 733 mmHg 79%
    11:00 +7°C° 0 mm 1 mps 734 mmHg 73%
    12:00 +8°C° 0 mm 1 mps 733 mmHg 70%
    13:00 +8°C° 0 mm 1 mps 733 mmHg 68%
    14:00 +9°C° 0 mm 1 mps 733 mmHg 65%
    15:00 +8°C° 0 mm 1 mps 733 mmHg 70%
    16:00 +7°C° 0 mm 1 mps 733 mmHg 74%
    17:00 +7°C° 0 mm 1 mps 733 mmHg 78%
    18:00 +6°C° 0 mm 1 mps 734 mmHg 81%
    19:00 +4°C° 0 mm 2 mps 734 mmHg 85%
    20:00 +3°C° 0 mm 2 mps 734 mmHg 88%
    21:00 +3°C° 0 mm 2 mps 734 mmHg 88%
    22:00 +3°C° 0 mm 2 mps 734 mmHg 89%
    23:00 +3°C° 0 mm 2 mps 734 mmHg 89%

    22 January, Tuesday

    Time Temperature Precipitation Wind Pressure Humidity
    00:00 +2°C° 0 mm 2 mps 734 mmHg 90%
    01:00 +2°C° 0 mm 2 mps 734 mmHg 91%
    02:00 +2°C° 0 mm 2 mps 734 mmHg 91%
    03:00 +2°C° 0.1 mm 2 mps 733 mmHg 92%
    04:00 +2°C° 0.1 mm 2 mps 733 mmHg 93%
    05:00 +2°C° 0.1 mm 2 mps 732 mmHg 94%
    06:00 +2°C° 0.1 mm 2 mps 732 mmHg 94%
    07:00 +2°C° 0.1 mm 2 mps 732 mmHg 95%
    08:00 +2°C° 0.1 mm 2 mps 732 mmHg 95%
    09:00 +3°C° 0.1 mm 2 mps 732 mmHg 95%
    10:00 +3°C° 0.1 mm 2 mps 731 mmHg 94%
    11:00 +4°C° 0.1 mm 2 mps 731 mmHg 94%
    12:00 +4°C° 0.1 mm 2 mps 730 mmHg 93%
    13:00 +5°C° 0.1 mm 2 mps 730 mmHg 92%
    14:00 +5°C° 0.1 mm 2 mps 729 mmHg 91%
    15:00 +5°C° 0.1 mm 2 mps 728 mmHg 92%
    16:00 +5°C° 0.1 mm 2 mps 728 mmHg 94%
    17:00 +5°C° 0.1 mm 2 mps 727 mmHg 95%
    18:00 +5°C° 0.1 mm 2 mps 727 mmHg 96%
    19:00 +6°C° 0.1 mm 2 mps 727 mmHg 96%
    20:00 +5°C° 0.1 mm 3 mps 726 mmHg 96%
    21:00 +5°C° 0 mm 3 mps 726 mmHg 96%
    22:00 +4°C° 0 mm 3 mps 726 mmHg 96%
    23:00 +4°C° 0 mm 3 mps 725 mmHg 96%

    23 January, Wednesday

    Time Temperature Precipitation Wind Pressure Humidity
    00:00 +4°C° 0.1 mm 3 mps 725 mmHg 96%
    01:00 +4°C° 0.1 mm 3 mps 724 mmHg 96%
    02:00 +5°C° 0.1 mm 3 mps 724 mmHg 96%
    03:00 +5°C° 0.1 mm 3 mps 723 mmHg 96%
    04:00 +5°C° 0.1 mm 3 mps 723 mmHg 97%
    05:00 +5°C° 0.1 mm 3 mps 722 mmHg 98%
    06:00 +7°C° 0.2 mm 3 mps 722 mmHg 97%
    07:00 +7°C° 0.2 mm 3 mps 722 mmHg 97%
    08:00 +6°C° 0.2 mm 4 mps 722 mmHg 97%
    09:00 +7°C° 0.1 mm 4 mps 722 mmHg 90%
    10:00 +8°C° 0.1 mm 5 mps 722 mmHg 83%
    11:00 +9°C° 0.1 mm 6 mps 723 mmHg 76%
    12:00 +10°C° 0 mm 6 mps 722 mmHg 71%
    13:00 +11°C° 0 mm 6 mps 722 mmHg 66%
    14:00 +12°C° 0 mm 7 mps 722 mmHg 60%
    15:00 +11°C° 0 mm 6 mps 722 mmHg 65%
    16:00 +10°C° 0 mm 6 mps 722 mmHg 70%
    17:00 +9°C° 0 mm 5 mps 722 mmHg 75%
    18:00 +8°C° 0 mm 4 mps 723 mmHg 81%
    19:00 +7°C° 0 mm 4 mps 723 mmHg 86%
    20:00 +8°C° 0 mm 3 mps 723 mmHg 92%
    21:00 +7°C° 0 mm 3 mps 723 mmHg 93%
    22:00 +7°C° 0 mm 2 mps 723 mmHg 95%
    23:00 +7°C° 0 mm 2 mps 723 mmHg 97%

    24 January, Thursday

    Time Temperature Precipitation Wind Pressure Humidity
    00:00 +7°C° 5 mm 2 mps 723 mmHg 97%
    01:00 +7°C° 5 mm 2 mps 723 mmHg 97%
    02:00 +8°C° 5 mm 1 mps 723 mmHg 97%
    03:00 +7°C° 0.9 mm 1 mps 723 mmHg 96%
    04:00 +6°C° 0.9 mm 2 mps 723 mmHg 95%
    05:00 +6°C° 0.9 mm 2 mps 723 mmHg 95%
    06:00 +6°C° 0.1 mm 2 mps 723 mmHg 94%
    07:00 +5°C° 0.1 mm 2 mps 723 mmHg 93%
    08:00 +5°C° 0.1 mm 2 mps 723 mmHg 92%
    09:00 +4°C° 0.4 mm 3 mps 723 mmHg 92%
    10:00 +4°C° 0.4 mm 3 mps 722 mmHg 92%
    11:00 +4°C° 0.4 mm 3 mps 722 mmHg 91%
    12:00 +3°C° 2 mm 3 mps 722 mmHg 92%
    13:00 +3°C° 2 mm 3 mps 721 mmHg 92%
    14:00 +3°C° 2 mm 3 mps 720 mmHg 93%
    15:00 +3°C° 2 mm 3 mps 720 mmHg 93%
    16:00 +3°C° 2 mm 3 mps 720 mmHg 93%
    17:00 +3°C° 2 mm 3 mps 720 mmHg 93%
    18:00 +4°C° 1.7 mm 2 mps 721 mmHg 94%
    19:00 +4°C° 1.7 mm 2 mps 721 mmHg 95%
    20:00 +4°C° 1.7 mm 2 mps 721 mmHg 96%
    21:00 +4°C° 0.4 mm 2 mps 721 mmHg 95%
    22:00 +4°C° 0.4 mm 2 mps 721 mmHg 95%
    23:00 +4°C° 0.4 mm 2 mps 722 mmHg 94%
    Show more